Regional Weather Roundup
Issued by NWS

Home | Current Version | Previous Version | Text Only | Print | Product List | Glossary On
Versions: 1 2 3 4 5 6 7 8 9 10 11 12 13 14 15 16 17 18 19 20 21 22 23 24 25 26 27 28 29 30 31 32 33 34 35 36 37 38 39 40 41 42 43 44 45 46 47 48 49 50
000
ASUS43 KTOP 260159
RWRKS

WEATHER ROUNDUP FOR KANSAS
NATIONAL WEATHER SERVICE GOODLAND KS
900 PM CDT MON SEP 25 2017

NOTE:  "FAIR" INDICATES FEW OR NO CLOUDS BELOW 12,000 FEET WITH NO
SIGNIFICANT WEATHER AND/OR OBSTRUCTIONS TO VISIBILITY.

KSZ001>006-013>018-027>032-041>047-260300-
NORTHWEST KANSAS

CITY           SKY/WX    TMP DP  RH WIND       PRES   REMARKS
GOODLAND       CLOUDY    49  47  93 N12       30.08R
HAYS           CLOUDY    55  54  96 N12       30.01R
HILL CITY      CLOUDY    53  53 100 N8        30.05R
RUSSELL        CLOUDY    56  55  97 N12       29.97R FOG
$$

KSZ061>065-074>080-084>089-260300-
SOUTHWEST KANSAS

CITY           SKY/WX    TMP DP  RH WIND       PRES   REMARKS
DODGE CITY     CLOUDY    56  55  97 N12G20    30.00R FOG
ELKHART          N/A     53  54 100 N7          N/A
GARDEN CITY    CLOUDY    53  52  96 N18       30.02R FOG
GREAT BEND     LGT RAIN  58  57  97 N7        29.96F
LIBERAL        CLOUDY    56  55  97 N13       30.03R
$$

KSZ066>073-081>083-090>101-260300-
SOUTHEAST KANSAS

CITY           SKY/WX    TMP DP  RH WIND       PRES   REMARKS
CHANUTE        PTCLDY    72  65  78 N10       29.94R
COFFEYVILLE    MOCLDY    73  66  78 N13       29.90R
HUTCHINSON     LGT RAIN  63  63 100 NW5       29.95R
NEWTON         LGT RAIN  63  62  97 N3        29.97R
PARSONS        CLOUDY    72  64  76 N12       29.93R
WICHITA INTL   LGT RAIN  64  64 100 NE8       29.94S
WICHITA JABRA  LGT RAIN  63  63 100 N7        29.95R
WICHITA MCCONL RAIN      64  61  88 N9        29.94S
WINFIELD       LGT RAIN  66  66 100 N7        29.95F
$$

KSZ007>012-019>026-033>040-048>060-102>105-260300-
NORTHEAST KANSAS

CITY           SKY/WX    TMP DP  RH WIND       PRES   REMARKS
CONCORDIA      CLOUDY    59  59 100 NE8       29.97S
EMPORIA        LGT RAIN  66  65  96 N5        29.96R
LAWRENCE       MOCLDY    70  64  81 NW14      29.95R
MANHATTAN      LGT RAIN  66  65  96 CALM      29.95R
OLATHE IND     MOCLDY    72  67  84 NW17G26   29.94R
OLATHE EXE     CLOUDY    75  67  76 CALM      29.91R
SALINA         LGT RAIN  64  61  90 NW5       29.97R
TOPEKA BILLARD LGT RAIN  67  67 100 NE5       29.95S
TOPEKA FORBES  CLOUDY    67  67 100 N3        29.96R
$$




USA.gov is the U.S. government's official web portal to all federal, state and local government web resources and services.